Precipitable_Water
0.36 0.27 0.23 0.23 0.24 0.25 0.25 0.26 0.27 0.26 0.28 0.34 0.33 0.35 0.37 0.37 0.42 0.48 0.52 0.64 0.61 0.58 0.58 0.66 0.68 0.74 0.76 0.74 0.81 0.83 0.83 0.92 0.92 0.85 0.88 0.90 0.91 0.93 0.98 1.02 1.05 1.09 1.08 1.17 1.26 1.30 1.33 1.36 1.42 1.44 1.40 1.38 1.38 1.37 1.35 1.33 1.29 1.29 1.31 1.36 1.33 1.42 1.36 1.44 1.52 1.52 1.46 1.37 1.33 1.41 1.53 1.50 1.51 1.47 1.43 1.41 1.56 1.67 1.77 1.77 1.67 1.48 1.45 1.38 1.32 1.38
0.33 0.26 0.24 0.24 0.26 0.26 0.26 0.26 0.29 0.29 0.28 0.29 0.30 0.29 0.32 0.35 0.37 0.45 0.53 0.56 0.64 0.50 0.62 0.66 0.69 0.74 0.76 0.77 0.80 0.86 0.74 0.77 0.84 0.86 0.85 0.85 0.87 0.88 0.91 0.94 0.98 1.05 1.10 1.14 1.13 1.19 1.27 1.30 1.32 1.35 1.34 1.32 1.26 1.27 1.31 1.25 1.30 1.29 1.34 1.25 1.28 1.28 1.43 1.46 1.43 1.45 1.56 1.53 1.53 1.44 1.46 1.39 1.30 1.31 1.39 1.47 1.51 1.57 1.54 1.53 1.55 1.48 1.43 1.38 1.29 1.24
0.24 0.23 0.26 0.27 0.29 0.31 0.32 0.29 0.28 0.27 0.26 0.26 0.26 0.27 0.27 0.29 0.44 0.49 0.50 0.54 0.59 0.47 0.60 0.71 0.64 0.75 0.79 0.80 0.82 0.81 0.74 0.76 0.80 0.87 0.90 0.87 0.85 0.84 0.87 0.91 0.95 0.98 0.98 1.03 1.06 1.13 1.18 1.22 1.26 1.27 1.30 1.29 1.33 1.32 1.29 1.32 1.30 1.31 1.27 1.28 1.25 1.26 1.41 1.40 1.57 1.54 1.47 1.53 1.49 1.32 1.29 1.29 1.25 1.35 1.37 1.30 1.32 1.38 1.40 1.43 1.47 1.40 1.33 1.26 1.22 1.21
0.18 0.20 0.27 0.28 0.31 0.29 0.27 0.27 0.27 0.28 0.28 0.26 0.26 0.26 0.25 0.29 0.32 0.34 0.43 0.48 0.56 0.46 0.56 0.69 0.61 0.78 0.83 0.85 0.78 0.84 0.81 0.85 0.93 0.89 0.93 0.96 0.89 0.82 0.81 0.87 0.94 0.93 0.94 0.96 1.03 1.05 1.12 1.18 1.23 1.23 1.24 1.27 1.32 1.31 1.28 1.27 1.28 1.32 1.31 1.28 1.24 1.25 1.38 1.39 1.45 1.44 1.50 1.61 1.53 1.43 1.49 1.31 1.22 1.17 1.23 1.20 1.14 1.09 1.09 1.14 1.35 1.35 1.28 1.24 1.18 1.16
0.17 0.22 0.29 0.30 0.29 0.27 0.25 0.27 0.29 0.29 0.26 0.27 0.26 0.26 0.27 0.31 0.32 0.30 0.49 0.48 0.56 0.54 0.66 0.67 0.59 0.71 0.71 0.63 0.66 0.78 0.90 0.83 0.79 0.82 0.84 0.91 0.96 0.95 0.91 0.90 0.93 0.91 0.93 0.99 1.03 1.09 1.11 1.14 1.18 1.19 1.21 1.27 1.25 1.25 1.26 1.29 1.31 1.32 1.30 1.30 1.26 1.21 1.28 1.27 1.29 1.31 1.25 1.15 1.03 1.00 0.96 0.92 0.92 0.90 0.89 0.86 0.82 0.90 0.93 0.97 1.08 1.14 1.15 1.17 1.16 1.14
0.24 0.29 0.30 0.28 0.27 0.27 0.29 0.29 0.30 0.30 0.28 0.28 0.28 0.28 0.27 0.27 0.32 0.32 0.51 0.50 0.42 0.45 0.51 0.55 0.43 0.52 0.70 0.66 0.60 0.69 0.71 0.68 0.75 0.70 0.71 0.76 0.83 0.94 0.94 0.97 1.02 1.05 1.05 1.03 1.06 1.10 1.11 1.12 1.16 1.19 1.20 1.20 1.22 1.22 1.27 1.32 1.35 1.31 1.27 1.26 1.21 1.24 1.21 1.19 1.17 1.08 0.91 0.88 0.91 0.86 0.74 0.67 0.70 0.68 0.71 0.69 0.69 0.74 0.79 0.82 0.90 1.03 1.09 1.08 1.05 1.04
0.29 0.31 0.30 0.27 0.28 0.31 0.31 0.30 0.31 0.29 0.28 0.27 0.28 0.29 0.31 0.33 0.36 0.42 0.46 0.42 0.34 0.35 0.55 0.56 0.41 0.40 0.57 0.65 0.64 0.68 0.64 0.62 0.73 0.70 0.70 0.76 0.80 0.83 0.86 0.92 0.98 1.02 1.09 1.14 1.14 1.14 1.12 1.14 1.15 1.14 1.14 1.15 1.17 1.19 1.28 1.29 1.30 1.25 1.26 1.18 1.13 1.06 1.06 1.06 0.98 0.93 0.87 0.87 0.86 0.80 0.76 0.74 0.71 0.67 0.74 0.79 0.81 0.79 0.82 0.85 0.87 0.88 0.99 1.10 1.03 1.03
0.31 0.30 0.30 0.31 0.31 0.30 0.28 0.27 0.30 0.28 0.26 0.27 0.41 0.35 0.32 0.34 0.41 0.48 0.45 0.36 0.38 0.49 0.69 0.65 0.55 0.41 0.45 0.63 0.70 0.68 0.64 0.59 0.64 0.66 0.70 0.74 0.78 0.79 0.82 0.90 0.99 1.05 1.08 1.10 1.13 1.16 1.19 1.18 1.17 1.10 1.07 1.12 1.12 1.20 1.25 1.24 1.26 1.25 1.13 1.10 1.05 1.04 0.99 0.94 0.98 0.93 0.90 0.87 0.83 0.82 0.80 0.80 0.77 0.75 0.77 0.80 0.86 0.85 0.81 0.81 0.85 0.88 0.93 1.09 1.10 1.08
0.30 0.29 0.30 0.29 0.29 0.27 0.27 0.28 0.31 0.30 0.29 0.39 0.41 0.37 0.37 0.40 0.44 0.44 0.39 0.39 0.53 0.55 0.56 0.54 0.58 0.39 0.34 0.46 0.63 0.70 0.60 0.61 0.58 0.64 0.66 0.72 0.78 0.81 0.82 0.86 0.94 1.05 1.09 1.12 1.13 1.15 1.17 1.20 1.21 1.18 1.09 1.13 1.18 1.21 1.15 1.17 1.18 1.16 1.11 1.03 1.00 0.95 0.93 0.95 0.95 0.96 0.98 0.89 0.83 0.80 0.78 0.80 0.84 0.81 0.80 0.78 0.88 0.81 0.84 0.85 0.91 0.90 0.94 1.02 1.10 1.14
0.32 0.32 0.32 0.31 0.28 0.26 0.33 0.32 0.33 0.31 0.29 0.41 0.49 0.50 0.49 0.52 0.49 0.46 0.42 0.44 0.49 0.43 0.36 0.46 0.58 0.35 0.32 0.47 0.58 0.66 0.56 0.58 0.57 0.61 0.67 0.71 0.77 0.81 0.82 0.86 0.93 1.04 1.11 1.14 1.19 1.20 1.22 1.26 1.28 1.26 1.19 1.15 1.17 1.17 1.17 1.15 1.11 1.09 1.05 0.98 0.95 0.94 0.96 0.96 0.95 0.99 0.91 0.87 0.84 0.80 0.81 0.77 0.80 0.79 0.79 0.78 0.81 0.83 0.84 0.83 0.89 0.94 0.97 0.99 1.02 1.06
0.33 0.36 0.39 0.32 0.30 0.34 0.32 0.33 0.33 0.33 0.35 0.45 0.46 0.41 0.41 0.41 0.44 0.44 0.44 0.44 0.41 0.32 0.32 0.35 0.47 0.42 0.26 0.32 0.42 0.53 0.48 0.47 0.57 0.66 0.73 0.79 0.83 0.87 0.87 0.89 0.95 1.02 1.07 1.12 1.15 1.21 1.24 1.32 1.36 1.32 1.22 1.19 1.17 1.12 1.08 1.09 1.08 1.06 1.02 1.00 0.97 0.95 0.95 0.96 0.97 0.92 0.86 0.83 0.79 0.77 0.74 0.73 0.70 0.72 0.72 0.71 0.72 0.79 0.81 0.81 0.85 0.90 0.94 1.00 0.99 1.03
0.31 0.33 0.32 0.35 0.34 0.34 0.34 0.31 0.34 0.37 0.37 0.39 0.36 0.36 0.36 0.35 0.38 0.36 0.36 0.38 0.28 0.24 0.35 0.34 0.41 0.46 0.28 0.28 0.36 0.50 0.60 0.59 0.58 0.65 0.77 0.78 0.83 0.88 0.92 0.92 0.97 1.04 1.07 1.10 1.12 1.15 1.25 1.32 1.36 1.33 1.22 1.17 1.08 1.06 1.02 1.09 1.05 1.03 1.03 1.00 0.93 0.93 0.96 1.00 0.95 0.93 0.85 0.81 0.78 0.76 0.73 0.73 0.73 0.74 0.73 0.70 0.69 0.76 0.75 0.79 0.81 0.85 0.89 0.92 0.94 0.99
0.27 0.29 0.33 0.33 0.35 0.33 0.31 0.29 0.33 0.35 0.35 0.33 0.34 0.33 0.26 0.29 0.26 0.26 0.29 0.22 0.21 0.22 0.41 0.38 0.35 0.32 0.31 0.30 0.35 0.41 0.53 0.73 0.68 0.69 0.80 0.88 0.85 0.92 0.95 0.96 0.99 1.05 1.05 1.05 1.06 1.13 1.23 1.26 1.23 1.25 1.23 1.07 1.05 0.99 1.03 1.05 1.02 1.02 1.00 0.97 0.94 0.95 0.99 0.93 0.95 0.93 0.88 0.88 0.83 0.76 0.77 0.78 0.77 0.79 0.76 0.77 0.74 0.79 0.77 0.79 0.80 0.82 0.84 0.88 0.87 0.91
0.27 0.33 0.31 0.32 0.34 0.35 0.31 0.26 0.27 0.26 0.29 0.28 0.28 0.28 0.25 0.25 0.21 0.20 0.25 0.24 0.25 0.32 0.34 0.30 0.39 0.23 0.27 0.31 0.39 0.39 0.43 0.55 0.76 0.68 0.75 0.89 0.98 0.98 0.99 1.01 1.03 1.08 1.06 1.02 1.04 1.09 1.20 1.27 1.26 1.25 1.17 1.03 1.03 1.01 1.03 1.04 1.02 1.01 0.97 0.95 0.96 0.96 0.93 0.91 0.87 0.81 0.77 0.80 0.77 0.80 0.80 0.83 0.82 0.81 0.79 0.82 0.78 0.80 0.82 0.83 0.82 0.83 0.85 0.87 0.89 0.89
0.23 0.22 0.28 0.29 0.26 0.33 0.30 0.29 0.29 0.28 0.28 0.28 0.31 0.29 0.29 0.27 0.24 0.21 0.22 0.23 0.24 0.26 0.37 0.40 0.24 0.20 0.19 0.32 0.48 0.49 0.47 0.53 0.66 0.75 0.75 0.79 0.94 1.07 1.12 1.06 1.04 1.09 1.11 1.08 1.06 1.09 1.19 1.27 1.25 1.19 1.11 1.03 1.04 1.03 1.05 1.06 1.03 0.99 0.96 0.96 0.95 0.93 0.91 0.90 0.84 0.79 0.78 0.77 0.81 0.83 0.86 0.88 0.87 0.80 0.82 0.85 0.87 0.86 0.82 0.84 0.82 0.86 0.90 0.89 0.89 0.90
0.24 0.25 0.29 0.31 0.35 0.32 0.30 0.33 0.33 0.31 0.30 0.32 0.34 0.35 0.30 0.29 0.32 0.23 0.34 0.27 0.26 0.27 0.31 0.31 0.23 0.28 0.27 0.57 0.52 0.45 0.49 0.50 0.53 0.62 0.74 0.77 0.81 0.92 1.03 1.07 1.01 1.05 1.11 1.09 1.07 1.11 1.20 1.25 1.24 1.16 1.10 1.05 1.05 1.06 1.10 1.08 1.03 0.99 0.99 0.99 0.99 0.97 0.94 0.91 0.86 0.82 0.76 0.78 0.82 0.84 0.83 0.84 0.84 0.86 0.86 0.89 0.91 0.89 0.87 0.86 0.87 0.89 0.92 0.92 0.93 0.97
0.28 0.25 0.33 0.33 0.34 0.32 0.32 0.33 0.33 0.34 0.25 0.32 0.32 0.28 0.33 0.40 0.33 0.33 0.28 0.30 0.29 0.26 0.22 0.36 0.32 0.32 0.35 0.31 0.31 0.38 0.40 0.42 0.48 0.54 0.57 0.65 0.74 0.80 0.90 1.04 1.10 1.10 1.12 1.10 1.08 1.12 1.19 1.24 1.23 1.16 1.09 1.05 1.06 1.09 1.11 1.10 1.04 1.02 1.03 1.02 1.02 1.01 0.99 0.95 0.92 0.87 0.83 0.82 0.78 0.84 0.81 0.79 0.79 0.82 0.83 0.81 0.81 0.83 0.87 0.90 0.93 0.94 0.96 0.97 0.98 0.97
0.24 0.28 0.33 0.30 0.28 0.32 0.35 0.34 0.36 0.35 0.37 0.34 0.28 0.32 0.39 0.39 0.39 0.32 0.27 0.36 0.28 0.23 0.28 0.35 0.29 0.27 0.28 0.25 0.42 0.42 0.32 0.37 0.42 0.45 0.54 0.62 0.71 0.74 0.81 0.96 1.08 1.14 1.13 1.14 1.13 1.13 1.17 1.19 1.18 1.14 1.08 1.05 1.07 1.12 1.14 1.13 1.11 1.09 1.10 1.05 1.04 1.02 0.96 0.99 0.94 0.89 0.86 0.84 0.81 0.80 0.79 0.80 0.78 0.79 0.82 0.83 0.81 0.83 0.87 0.93 0.95 0.97 0.97 0.97 1.00 0.99
0.28 0.25 0.30 0.31 0.31 0.32 0.34 0.33 0.32 0.36 0.39 0.34 0.32 0.41 0.30 0.28 0.26 0.33 0.31 0.24 0.26 0.24 0.25 0.30 0.30 0.24 0.27 0.26 0.36 0.39 0.37 0.37 0.42 0.46 0.48 0.54 0.64 0.71 0.80 0.92 1.09 1.19 1.18 1.12 1.07 1.08 1.13 1.13 1.12 1.10 1.03 1.04 1.10 1.16 1.19 1.18 1.15 1.13 1.12 1.08 1.08 1.05 1.01 1.02 0.96 0.91 0.87 0.81 0.79 0.76 0.76 0.75 0.79 0.83 0.82 0.83 0.83 0.86 0.88 0.90 0.94 0.96 0.98 1.00 0.99 0.96
0.28 0.23 0.30 0.35 0.30 0.32 0.32 0.30 0.26 0.30 0.36 0.39 0.40 0.36 0.38 0.36 0.33 0.36 0.32 0.31 0.28 0.20 0.21 0.22 0.28 0.22 0.34 0.30 0.34 0.29 0.30 0.31 0.36 0.47 0.42 0.50 0.58 0.69 0.79 0.89 1.00 1.09 1.10 1.07 1.07 1.09 1.09 1.08 1.08 1.07 1.03 1.02 1.10 1.17 1.22 1.20 1.18 1.14 1.14 1.10 1.08 1.07 1.03 0.98 0.91 0.88 0.83 0.86 0.80 0.79 0.78 0.79 0.80 0.82 0.82 0.83 0.83 0.85 0.87 0.91 0.94 0.96 0.96 0.96 0.97 0.99
0.27 0.26 0.26 0.33 0.34 0.30 0.26 0.29 0.27 0.31 0.30 0.31 0.32 0.33 0.35 0.34 0.39 0.35 0.39 0.29 0.28 0.25 0.23 0.22 0.20 0.24 0.34 0.41 0.33 0.30 0.30 0.32 0.36 0.42 0.47 0.50 0.57 0.68 0.80 0.88 0.97 1.04 1.05 1.06 1.06 1.06 1.04 1.03 1.05 1.09 1.08 1.10 1.19 1.24 1.22 1.20 1.16 1.13 1.16 1.12 1.08 1.02 0.97 0.94 0.91 0.88 0.87 0.82 0.80 0.76 0.76 0.79 0.82 0.84 0.86 0.85 0.87 0.87 0.91 0.93 0.94 0.95 0.96 0.97 0.98 0.98
0.26 0.28 0.22 0.32 0.28 0.24 0.26 0.32 0.34 0.38 0.35 0.34 0.33 0.33 0.34 0.33 0.30 0.27 0.29 0.37 0.33 0.28 0.23 0.23 0.21 0.25 0.35 0.38 0.33 0.31 0.34 0.38 0.39 0.42 0.49 0.55 0.58 0.66 0.75 0.85 0.94 1.00 1.03 1.07 1.07 1.04 1.03 1.05 1.06 1.10 1.13 1.15 1.21 1.20 1.17 1.17 1.17 1.11 1.10 1.13 1.11 1.05 1.02 0.98 0.98 0.92 0.86 0.81 0.77 0.74 0.77 0.79 0.81 0.83 0.85 0.84 0.87 0.89 0.93 0.93 0.92 0.93 0.97 0.97 0.99 1.01
0.27 0.30 0.23 0.28 0.28 0.28 0.31 0.36 0.38 0.41 0.40 0.38 0.36 0.34 0.38 0.37 0.35 0.31 0.25 0.34 0.34 0.32 0.31 0.28 0.23 0.23 0.41 0.38 0.36 0.39 0.44 0.42 0.49 0.48 0.52 0.59 0.64 0.70 0.76 0.84 0.91 0.96 0.99 1.02 1.05 1.09 1.08 1.08 1.09 1.12 1.14 1.16 1.20 1.20 1.19 1.18 1.14 1.12 1.11 1.09 1.09 1.01 0.94 0.90 0.94 0.97 0.91 0.82 0.77 0.79 0.80 0.81 0.82 0.84 0.85 0.84 0.87 0.89 0.88 0.90 0.91 0.93 0.94 0.97 0.98 1.01
0.31 0.30 0.25 0.25 0.37 0.35 0.35 0.38 0.37 0.37 0.39 0.36 0.36 0.37 0.35 0.33 0.35 0.35 0.35 0.39 0.35 0.37 0.30 0.29 0.24 0.26 0.42 0.47 0.44 0.43 0.45 0.45 0.48 0.52 0.56 0.64 0.68 0.72 0.77 0.82 0.87 0.92 0.97 1.00 1.08 1.13 1.14 1.13 1.16 1.19 1.18 1.20 1.18 1.20 1.20 1.18 1.13 1.13 1.12 1.11 1.09 1.03 0.96 0.92 0.93 0.94 0.94 0.84 0.80 0.82 0.82 0.82 0.85 0.83 0.82 0.83 0.88 0.88 0.90 0.92 0.94 0.95 0.93 0.96 0.98 1.00
0.24 0.26 0.24 0.26 0.28 0.28 0.31 0.31 0.32 0.37 0.36 0.33 0.33 0.36 0.36 0.37 0.37 0.38 0.40 0.41 0.32 0.33 0.34 0.29 0.23 0.29 0.46 0.49 0.44 0.45 0.43 0.44 0.48 0.52 0.57 0.64 0.72 0.75 0.79 0.81 0.86 0.92 0.98 1.01 1.04 1.09 1.13 1.13 1.13 1.14 1.14 1.14 1.17 1.22 1.24 1.22 1.15 1.12 1.11 1.09 1.06 1.03 1.03 1.02 1.00 0.95 0.88 0.82 0.81 0.85 0.86 0.86 0.87 0.84 0.84 0.85 0.88 0.87 0.90 0.91 0.92 0.94 0.92 0.93 0.99 1.01
0.26 0.33 0.25 0.23 0.22 0.18 0.19 0.18 0.22 0.27 0.28 0.32 0.34 0.35 0.38 0.37 0.37 0.35 0.32 0.36 0.29 0.33 0.35 0.30 0.27 0.32 0.48 0.51 0.46 0.47 0.46 0.47 0.50 0.54 0.59 0.62 0.71 0.79 0.85 0.88 0.91 0.93 0.93 0.97 1.01 1.03 1.05 1.09 1.12 1.11 1.13 1.16 1.19 1.23 1.26 1.22 1.16 1.13 1.11 1.09 1.06 1.01 0.98 1.00 1.02 0.99 0.90 0.82 0.81 0.85 0.87 0.89 0.87 0.84 0.84 0.87 0.88 0.89 0.91 0.93 0.96 0.95 0.92 0.89 0.86 0.88
0.30 0.38 0.30 0.24 0.23 0.22 0.24 0.26 0.31 0.33 0.33 0.28 0.31 0.34 0.36 0.37 0.38 0.38 0.37 0.36 0.33 0.43 0.35 0.34 0.31 0.31 0.35 0.44 0.47 0.48 0.48 0.44 0.44 0.52 0.55 0.58 0.63 0.74 0.85 0.89 0.93 0.96 0.98 0.98 1.01 1.05 1.10 1.13 1.12 1.14 1.17 1.18 1.21 1.26 1.27 1.18 1.13 1.10 1.11 1.10 1.06 1.03 1.02 1.03 1.02 0.97 0.85 0.78 0.78 0.83 0.85 0.88 0.86 0.86 0.87 0.88 0.90 0.91 0.92 0.94 0.97 0.98 0.98 0.98 0.92 0.89
0.38 0.30 0.31 0.28 0.27 0.27 0.34 0.45 0.39 0.35 0.33 0.35 0.34 0.35 0.36 0.36 0.37 0.37 0.35 0.36 0.46 0.39 0.32 0.38 0.39 0.34 0.33 0.38 0.44 0.46 0.48 0.47 0.49 0.51 0.55 0.67 0.64 0.66 0.75 0.84 0.89 0.94 1.00 1.05 1.06 1.07 1.08 1.13 1.18 1.21 1.21 1.21 1.23 1.26 1.24 1.18 1.12 1.09 1.08 1.05 1.05 1.05 1.03 1.02 1.02 0.97 0.85 0.78 0.78 0.81 0.87 0.89 0.87 0.87 0.88 0.89 0.90 0.91 0.93 0.97 1.04 1.08 1.06 1.01 0.91 0.86
0.35 0.28 0.32 0.30 0.30 0.35 0.34 0.35 0.36 0.35 0.36 0.38 0.38 0.38 0.35 0.35 0.37 0.35 0.37 0.40 0.46 0.36 0.32 0.42 0.46 0.42 0.39 0.40 0.45 0.48 0.49 0.45 0.44 0.46 0.53 0.61 0.69 0.69 0.69 0.74 0.79 0.85 0.91 0.95 1.00 1.06 1.10 1.13 1.20 1.25 1.26 1.26 1.25 1.21 1.17 1.11 1.09 1.09 1.07 1.05 1.05 1.04 1.04 1.04 1.01 0.92 0.83 0.81 0.80 0.86 0.90 0.89 0.86 0.87 0.89 0.91 0.92 0.94 0.96 1.04 1.09 1.06 1.00 0.94 0.88 0.85
0.40 0.33 0.42 0.37 0.34 0.35 0.34 0.33 0.34 0.32 0.34 0.34 0.36 0.38 0.37 0.36 0.37 0.38 0.39 0.42 0.46 0.43 0.43 0.43 0.51 0.43 0.42 0.42 0.46 0.45 0.46 0.44 0.45 0.47 0.46 0.47 0.50 0.59 0.64 0.65 0.71 0.80 0.84 0.88 0.95 1.04 1.11 1.17 1.23 1.28 1.29 1.26 1.21 1.19 1.13 1.06 1.03 1.01 0.99 0.99 1.03 1.03 1.03 1.04 0.99 0.88 0.82 0.80 0.84 0.89 0.91 0.89 0.89 0.89 0.92 0.94 0.96 0.99 1.00 1.06 1.07 1.00 0.93 0.91 0.90 0.89
0.37 0.44 0.39 0.39 0.34 0.34 0.35 0.35 0.35 0.35 0.35 0.33 0.36 0.39 0.39 0.39 0.39 0.40 0.40 0.43 0.47 0.44 0.44 0.44 0.44 0.41 0.45 0.47 0.51 0.49 0.44 0.44 0.41 0.37 0.37 0.40 0.45 0.52 0.58 0.60 0.64 0.69 0.79 0.89 0.95 1.00 1.09 1.18 1.26 1.30 1.27 1.23 1.20 1.16 1.09 1.02 0.97 0.97 0.98 1.03 1.06 1.06 1.05 1.01 0.96 0.88 0.81 0.81 0.85 0.89 0.90 0.90 0.91 0.91 0.90 0.94 0.95 0.98 1.06 1.09 1.01 0.93 0.92 0.93 0.93 0.95
0.39 0.50 0.44 0.39 0.32 0.35 0.36 0.35 0.36 0.36 0.36 0.36 0.37 0.38 0.38 0.38 0.36 0.40 0.40 0.46 0.43 0.42 0.45 0.45 0.41 0.40 0.46 0.50 0.56 0.52 0.46 0.40 0.34 0.33 0.35 0.41 0.46 0.48 0.52 0.59 0.65 0.71 0.75 0.83 0.92 1.00 1.06 1.13 1.22 1.24 1.22 1.21 1.19 1.12 1.05 0.98 0.97 0.98 0.99 1.03 1.03 1.04 1.07 1.02 0.96 0.86 0.81 0.83 0.88 0.89 0.90 0.91 0.93 0.93 0.93 0.95 0.95 1.00 1.05 1.05 0.97 0.92 0.92 0.89 0.86 0.89
0.41 0.47 0.38 0.38 0.31 0.34 0.40 0.40 0.37 0.35 0.35 0.34 0.35 0.37 0.39 0.40 0.41 0.44 0.45 0.48 0.47 0.47 0.42 0.39 0.40 0.47 0.49 0.50 0.42 0.39 0.38 0.38 0.42 0.47 0.44 0.44 0.47 0.50 0.54 0.59 0.66 0.72 0.75 0.80 0.88 0.99 1.06 1.11 1.19 1.23 1.23 1.22 1.17 1.07 1.00 0.99 0.98 1.00 1.02 1.04 1.02 0.99 0.99 1.00 0.93 0.84 0.81 0.85 0.87 0.89 0.91 0.93 0.92 0.93 0.95 0.95 0.99 1.03 1.00 1.02 0.95 0.93 0.90 0.87 0.87 0.89
0.50 0.46 0.41 0.42 0.32 0.40 0.41 0.40 0.40 0.35 0.28 0.29 0.50 0.47 0.46 0.42 0.42 0.41 0.43 0.48 0.51 0.47 0.42 0.43 0.44 0.45 0.42 0.40 0.39 0.40 0.38 0.40 0.45 0.51 0.53 0.43 0.44 0.54 0.58 0.60 0.67 0.75 0.80 0.82 0.88 0.97 1.09 1.18 1.23 1.26 1.24 1.20 1.14 1.03 0.99 0.99 1.01 1.05 1.05 1.01 0.99 0.96 0.97 0.91 0.85 0.82 0.83 0.86 0.89 0.90 0.90 0.90 0.91 0.91 0.94 0.98 1.03 1.02 1.00 1.01 0.94 0.92 0.89 0.89 0.89 0.87
0.43 0.45 0.41 0.49 0.37 0.39 0.46 0.42 0.34 0.28 0.30 0.57 0.54 0.55 0.53 0.49 0.48 0.46 0.47 0.49 0.49 0.50 0.47 0.45 0.46 0.47 0.45 0.44 0.43 0.42 0.43 0.45 0.48 0.47 0.47 0.53 0.53 0.53 0.56 0.62 0.67 0.72 0.79 0.85 0.91 0.98 1.10 1.20 1.24 1.24 1.23 1.14 1.02 0.99 1.00 1.03 1.08 1.07 1.01 0.96 0.93 0.95 0.94 0.87 0.81 0.82 0.83 0.83 0.87 0.91 0.93 0.92 0.93 0.93 0.97 1.01 1.02 1.02 1.01 0.97 0.91 0.89 0.89 0.88 0.86 0.87
0.45 0.42 0.47 0.41 0.40 0.46 0.40 0.36 0.27 0.29 0.52 0.53 0.53 0.52 0.53 0.50 0.50 0.47 0.43 0.46 0.48 0.49 0.50 0.47 0.47 0.45 0.42 0.42 0.43 0.50 0.43 0.47 0.48 0.52 0.54 0.59 0.60 0.59 0.58 0.61 0.68 0.74 0.79 0.86 0.93 1.02 1.12 1.21 1.22 1.22 1.15 1.08 1.01 0.99 1.01 1.05 1.05 0.98 0.93 0.93 0.90 0.91 0.86 0.82 0.79 0.79 0.81 0.80 0.85 0.91 0.95 0.95 0.95 0.99 1.02 1.01 1.00 1.00 1.00 0.92 0.88 0.85 0.87 0.89 0.89 0.91
0.50 0.48 0.45 0.40 0.47 0.33 0.34 0.33 0.31 0.49 0.47 0.49 0.45 0.46 0.44 0.41 0.42 0.40 0.36 0.43 0.52 0.55 0.52 0.50 0.46 0.43 0.42 0.42 0.47 0.46 0.48 0.48 0.39 0.42 0.56 0.56 0.58 0.59 0.63 0.67 0.72 0.77 0.84 0.91 1.00 1.10 1.22 1.27 1.26 1.21 1.12 1.04 0.99 1.05 1.08 1.05 0.98 0.89 0.87 0.88 0.87 0.83 0.81 0.78 0.75 0.76 0.77 0.79 0.86 0.91 0.94 0.97 0.98 0.97 0.97 0.99 0.98 0.97 0.95 0.88 0.84 0.84 0.89 0.89 0.90 0.88
0.52 0.45 0.46 0.37 0.41 0.39 0.33 0.31 0.33 0.33 0.31 0.39 0.53 0.54 0.53 0.53 0.52 0.50 0.44 0.39 0.46 0.46 0.48 0.45 0.41 0.41 0.40 0.43 0.46 0.48 0.50 0.41 0.31 0.62 0.61 0.62 0.64 0.64 0.69 0.74 0.77 0.82 0.88 0.96 1.06 1.18 1.21 1.22 1.20 1.15 0.99 0.96 1.04 1.05 0.96 0.92 0.89 0.88 0.84 0.81 0.81 0.80 0.80 0.76 0.75 0.77 0.77 0.82 0.88 0.92 0.97 0.99 0.98 0.94 0.94 0.98 0.98 0.97 0.90 0.88 0.89 0.91 0.99 0.95 0.92 0.96
0.50 0.49 0.56 0.40 0.40 0.38 0.32 0.28 0.27 0.26 0.31 0.41 0.48 0.61 0.61 0.59 0.51 0.52 0.38 0.32 0.42 0.46 0.50 0.43 0.41 0.43 0.43 0.44 0.48 0.46 0.40 0.34 0.38 0.51 0.59 0.63 0.62 0.62 0.67 0.71 0.78 0.86 0.91 0.97 1.02 1.04 1.09 1.13 1.12 1.03 1.00 1.04 0.98 0.94 0.91 0.88 0.86 0.85 0.80 0.75 0.75 0.76 0.76 0.75 0.77 0.79 0.79 0.84 0.89 0.95 1.00 1.02 1.00 0.97 0.97 0.96 0.96 0.94 0.91 0.93 0.91 0.87 0.93 0.88 0.89 1.02
0.40 0.41 0.42 0.37 0.33 0.37 0.35 0.30 0.26 0.28 0.29 0.45 0.57 0.55 0.57 0.56 0.53 0.43 0.29 0.29 0.46 0.50 0.49 0.48 0.44 0.43 0.46 0.49 0.49 0.43 0.37 0.35 0.41 0.60 0.64 0.68 0.68 0.67 0.68 0.72 0.73 0.80 0.88 0.98 1.06 1.09 1.07 1.12 1.08 0.98 0.98 0.97 0.93 0.89 0.88 0.88 0.83 0.80 0.76 0.77 0.78 0.73 0.73 0.78 0.84 0.85 0.86 0.89 0.91 0.97 1.03 1.03 0.99 0.99 0.98 0.96 0.97 1.00 0.99 0.93 0.86 0.86 0.92 0.90 0.89 0.90
0.35 0.37 0.37 0.31 0.32 0.34 0.34 0.28 0.30 0.33 0.47 0.54 0.55 0.53 0.52 0.53 0.45 0.32 0.26 0.34 0.49 0.52 0.51 0.49 0.48 0.48 0.50 0.53 0.49 0.39 0.49 0.55 0.54 0.59 0.67 0.65 0.60 0.67 0.75 0.81 0.84 0.87 0.91 0.92 0.98 1.05 1.06 1.07 1.00 0.97 0.96 0.89 0.86 0.88 0.91 0.90 0.85 0.83 0.83 0.84 0.84 0.80 0.82 0.89 0.94 0.91 0.90 0.95 1.03 1.02 0.99 0.99 1.00 0.99 1.02 1.03 1.05 1.02 0.92 0.88 0.86 0.90 0.96 0.93 0.91 0.94
0.36 0.35 0.36 0.35 0.31 0.31 0.34 0.33 0.29 0.32 0.51 0.56 0.54 0.52 0.53 0.44 0.31 0.29 0.55 0.55 0.51 0.52 0.59 0.55 0.52 0.51 0.53 0.53 0.50 0.46 0.57 0.64 0.62 0.65 0.66 0.67 0.70 0.76 0.78 0.81 0.85 0.89 0.96 0.99 1.00 1.04 1.04 0.99 0.96 0.90 0.87 0.88 0.86 0.90 0.95 0.94 0.89 0.87 0.89 0.89 0.90 0.89 0.91 0.96 0.94 0.94 1.01 1.09 1.04 1.00 0.97 0.94 0.97 1.00 1.02 0.94 0.97 0.94 0.90 0.91 0.92 0.89 0.91 0.98 0.99 0.94
0.41 0.35 0.32 0.31 0.32 0.33 0.34 0.34 0.33 0.28 0.60 0.57 0.58 0.54 0.53 0.38 0.41 0.60 0.61 0.70 0.58 0.59 0.56 0.55 0.52 0.51 0.56 0.54 0.54 0.62 0.64 0.62 0.64 0.69 0.71 0.74 0.75 0.76 0.79 0.84 0.86 0.88 0.90 0.92 0.94 0.99 0.98 0.95 0.92 0.89 0.88 0.91 0.93 0.99 0.97 0.93 0.88 0.88 0.90 0.90 0.95 0.94 0.95 0.99 1.06 1.10 1.08 1.04 1.03 1.01 0.97 0.94 0.94 0.98 1.06 1.12 1.01 0.90 0.86 0.89 0.89 0.90 0.91 0.93 0.96 0.96
0.52 0.35 0.36 0.38 0.43 0.36 0.35 0.32 0.34 0.55 0.54 0.61 0.59 0.49 0.57 0.53 0.71 0.66 0.61 0.54 0.60 0.56 0.56 0.53 0.56 0.58 0.63 0.59 0.61 0.64 0.68 0.70 0.73 0.76 0.78 0.79 0.80 0.83 0.86 0.89 0.93 0.95 0.96 0.96 0.98 1.00 0.97 0.97 0.95 0.94 0.92 0.94 1.06 1.04 1.02 0.96 0.92 0.91 0.90 0.90 1.01 1.03 1.04 1.10 1.14 1.07 1.02 1.03 1.01 0.97 0.93 0.94 0.97 1.01 1.04 1.01 0.97 0.90 0.85 0.89 0.94 0.95 0.96 0.95 0.93 0.95
0.53 0.44 0.48 0.40 0.54 0.42 0.40 0.46 0.66 0.63 0.64 0.62 0.61 0.61 0.59 0.62 0.61 0.62 0.60 0.58 0.55 0.55 0.60 0.57 0.56 0.60 0.65 0.67 0.71 0.70 0.71 0.74 0.78 0.83 0.81 0.83 0.84 0.85 0.87 0.90 0.93 0.95 0.95 0.95 0.94 1.01 0.99 0.96 0.97 0.97 0.99 1.01 1.02 1.01 0.95 0.93 0.88 0.89 0.88 0.95 1.06 1.09 1.08 1.10 1.04 0.99 1.03 1.02 0.99 0.97 0.97 0.99 0.99 1.01 1.02 1.00 0.93 0.86 0.84 0.87 0.93 0.95 0.98 0.93 0.92 0.95
0.55 0.55 0.55 0.47 0.49 0.54 0.56 0.61 0.61 0.61 0.61 0.65 0.63 0.67 0.63 0.63 0.67 0.67 0.66 0.62 0.63 0.62 0.62 0.58 0.61 0.63 0.67 0.71 0.72 0.73 0.75 0.83 0.83 0.87 0.88 0.89 0.90 0.93 0.95 0.96 0.98 0.99 1.01 1.00 0.99 0.99 1.01 1.01 0.98 0.98 0.99 1.01 1.01 0.99 0.99 0.99 0.96 0.91 0.92 1.01 1.09 1.09 1.08 1.04 1.00 1.00 0.99 0.97 0.97 1.00 1.04 1.03 1.02 1.04 1.02 0.96 0.92 0.89 0.89 0.92 0.96 0.96 0.98 0.97 0.95 0.96
0.56 0.54 0.53 0.45 0.55 0.43 0.42 0.56 0.56 0.54 0.58 0.61 0.62 0.65 0.68 0.68 0.69 0.71 0.71 0.70 0.68 0.67 0.67 0.69 0.68 0.70 0.74 0.76 0.77 0.77 0.82 0.86 0.87 0.89 0.92 0.93 0.93 0.94 0.94 0.95 0.96 0.96 0.96 0.94 0.97 0.97 0.95 0.95 0.93 0.93 0.95 0.96 1.01 0.99 0.99 0.99 0.99 0.98 1.05 1.13 1.14 1.05 1.04 1.04 1.02 1.00 0.98 0.97 0.98 1.05 1.05 0.98 0.93 0.94 0.97 0.95 0.94 0.93 0.94 0.97 0.98 0.99 0.99 0.97 0.95 0.95
0.48 0.55 0.48 0.50 0.48 0.40 0.45 0.54 0.55 0.57 0.61 0.63 0.63 0.61 0.60 0.63 0.66 0.68 0.68 0.71 0.71 0.73 0.74 0.76 0.78 0.77 0.81 0.79 0.83 0.84 0.86 0.88 0.87 0.88 0.90 0.92 0.94 0.96 0.97 0.96 0.95 0.95 0.98 0.99 0.96 0.94 0.94 0.92 0.91 0.92 0.93 0.97 1.05 1.03 1.00 0.97 0.97 0.99 1.01 1.09 1.07 1.09 1.05 1.00 0.95 0.95 0.93 0.98 1.06 1.09 1.07 1.01 0.97 0.94 0.92 0.93 0.91 0.90 0.92 1.00 0.99 0.97 0.95 0.97 0.99 0.98
0.59 0.56 0.45 0.56 0.46 0.54 0.54 0.55 0.54 0.54 0.59 0.62 0.60 0.61 0.58 0.57 0.59 0.63 0.66 0.69 0.73 0.73 0.75 0.80 0.83 0.86 0.85 0.86 0.89 0.91 0.88 0.93 0.91 0.89 0.89 0.92 0.92 0.92 0.93 0.94 0.96 0.96 0.95 0.94 0.94 0.96 0.98 0.97 0.95 0.94 0.90 0.92 0.94 0.95 0.92 0.92 0.92 0.98 1.03 1.01 1.03 1.08 0.99 0.96 0.93 0.92 0.99 1.05 1.05 1.05 1.00 0.98 1.00 0.98 0.93 0.92 0.93 0.92 0.92 0.94 0.95 0.94 0.97 1.11 1.10 1.04
0.54 0.49 0.58 0.51 0.45 0.44 0.48 0.55 0.55 0.46 0.49 0.59 0.58 0.56 0.55 0.57 0.61 0.63 0.66 0.70 0.74 0.76 0.81 0.82 0.85 0.89 0.89 0.94 0.95 0.94 0.92 0.95 0.97 0.94 0.94 0.96 0.95 0.95 0.94 0.95 0.95 0.94 0.94 0.96 0.96 0.94 0.91 0.89 0.89 0.87 0.85 0.85 0.84 0.84 0.86 0.87 0.88 0.90 0.96 1.03 1.10 1.07 1.02 0.98 0.96 0.96 1.00 1.05 1.02 1.01 1.00 1.00 0.99 0.96 0.89 0.84 0.83 0.87 0.96 1.00 1.01 1.01 1.03 1.09 1.11 1.08
0.52 0.59 0.55 0.49 0.48 0.49 0.58 0.63 0.63 0.58 0.56 0.57 0.57 0.57 0.58 0.64 0.65 0.65 0.69 0.70 0.76 0.81 0.87 0.89 0.85 0.84 0.87 0.91 0.95 0.91 0.91 0.93 0.95 0.94 0.92 0.97 0.94 0.92 0.91 0.88 0.85 0.85 0.85 0.87 0.85 0.84 0.85 0.85 0.83 0.83 0.79 0.80 0.79 0.80 0.80 0.82 0.85 0.89 0.95 1.02 1.06 1.06 1.03 0.98 0.97 0.91 0.92 0.99 0.98 0.96 0.96 0.91 0.87 0.89 0.88 0.87 0.90 0.90 0.91 0.99 1.05 1.09 1.11 1.12 1.10 1.10
Wind_Speed
13 12 12 12 12 14 15 15 12 10 11 14 14 13 12 12 11 10 8 7 8 6 5 6 4 5 6 6 6 6 6 5 5 6 6 6 6 6 6 5 5 5 4 4 4 4 3 3 3 3 2 2 1 1 1 1 1 2 3 3 4 5 6 7 8 9 10 11 13 14 14 14 15 16 17 17 18 18 19 19 19 19 19 20 21 21
14 13 13 14 12 12 14 13 11 10 10 13 14 13 12 12 10 11 10 8 9 8 6 7 6 6 7 6 6 6 6 6 6 6 6 6 6 6 6 6 5 4 4 4 4 3 3 3 3 3 3 2 2 1 1 0 1 1 2 2 4 5 6 7 8 9 11 12 13 13 13 14 15 16 17 17 18 18 19 20 20 20 21 21 22 22
14 14 14 14 11 10 11 12 12 12 12 13 13 13 12 11 9 10 10 10 9 9 7 8 8 7 7 7 7 7 7 7 6 6 6 6 6 6 6 6 5 5 4 4 3 3 3 3 4 4 3 2 2 1 1 1 1 2 2 3 3 4 5 7 8 9 11 11 12 13 14 14 15 16 16 17 18 19 20 21 21 21 22 23 23 23
14 14 14 13 12 12 12 12 13 12 12 13 13 13 12 12 11 10 11 11 10 10 8 8 9 8 8 8 8 8 8 7 7 7 7 7 7 7 7 6 5 5 5 4 4 4 4 4 4 4 3 3 2 1 0 1 2 2 3 3 4 5 6 7 8 9 10 11 12 13 14 14 15 15 16 17 18 18 19 20 21 22 23 23 24 24
12 12 12 12 13 14 13 12 13 11 11 13 13 13 11 12 14 12 11 11 11 11 10 10 10 9 9 10 10 10 9 9 9 9 9 9 8 8 8 7 6 6 5 5 5 5 5 5 4 4 3 2 2 1 1 1 2 3 4 4 5 6 7 8 9 10 11 12 12 13 14 14 15 16 16 17 18 18 19 20 21 22 23 23 24 24
11 10 12 13 13 14 13 12 13 12 11 12 14 14 12 12 13 12 11 11 11 12 12 12 11 10 10 12 11 10 10 11 11 11 12 11 10 10 9 9 8 7 6 6 6 6 6 6 5 5 4 3 2 1 1 2 3 3 4 5 6 7 8 9 10 11 12 13 14 14 15 15 16 16 17 17 18 18 19 20 20 21 22 22 23 23
10 10 12 13 14 14 13 12 13 12 10 9 11 13 13 12 12 12 12 12 12 12 12 14 12 9 10 12 12 12 12 13 13 13 14 13 12 12 11 10 10 9 8 7 7 7 7 7 6 5 5 4 3 2 2 3 3 4 5 6 7 8 9 10 11 12 13 14 15 15 16 16 16 16 17 17 18 18 19 19 20 21 21 22 22 22
11 13 13 13 14 13 13 12 12 12 10 7 7 10 11 12 12 12 13 12 10 9 10 13 14 11 10 11 12 14 13 14 14 15 16 15 14 14 14 13 12 10 10 9 8 8 8 8 7 6 5 5 4 3 3 3 4 5 5 7 8 9 10 11 12 13 14 14 15 15 16 16 16 16 16 17 17 18 18 19 19 20 21 21 22 22
13 15 15 14 14 12 11 10 10 12 10 6 6 8 9 10 11 11 12 10 9 9 11 12 13 13 12 11 11 13 14 15 16 16 17 17 17 16 16 15 14 12 11 10 10 9 9 9 8 7 6 5 4 4 4 4 4 5 6 7 8 10 11 12 13 13 14 15 15 15 16 16 16 16 16 17 17 17 18 18 19 20 20 21 22 22
14 13 14 15 13 11 9 7 8 9 8 7 7 7 7 8 9 9 10 9 9 11 12 12 13 12 12 11 11 12 14 15 16 16 17 18 18 17 17 17 16 14 12 12 11 11 11 10 10 9 7 6 5 5 4 4 5 6 7 8 9 11 12 13 14 14 15 15 15 16 16 16 16 17 17 17 17 17 18 19 19 20 20 21 22 22
13 12 12 13 11 10 9 7 7 7 8 9 8 7 7 6 7 8 9 9 10 12 12 12 13 13 12 11 11 12 14 15 15 15 17 18 19 19 18 17 17 16 14 13 13 12 12 12 10 10 9 7 6 6 5 5 6 6 7 9 10 12 13 14 15 15 15 16 16 16 17 17 17 18 18 17 17 18 19 19 20 21 21 21 22 22
14 13 13 13 11 10 10 8 7 8 10 9 8 8 7 6 7 8 8 10 11 11 10 10 12 14 14 13 12 12 13 14 14 15 16 18 19 19 19 18 17 17 16 15 14 14 13 12 11 11 10 9 8 7 6 6 7 7 8 10 11 13 14 15 16 16 16 16 16 17 17 17 18 18 18 18 18 18 19 20 21 22 22 22 23 23
14 14 14 13 12 13 12 9 9 9 10 10 9 10 9 7 8 9 9 10 11 10 8 9 11 14 15 15 16 15 14 14 14 14 15 17 18 19 19 19 18 17 17 16 15 15 14 13 13 12 11 10 9 9 8 8 8 8 9 10 12 13 14 15 16 17 17 17 17 18 18 18 18 18 18 18 18 19 20 21 22 22 23 23 23 24
14 13 14 15 14 15 14 12 11 10 11 11 11 11 10 8 8 10 10 10 11 10 8 8 10 13 14 14 15 15 14 15 15 14 14 15 18 19 19 20 19 18 18 17 16 16 15 15 14 14 12 11 11 10 10 9 9 9 10 11 13 14 15 16 17 17 17 17 18 18 18 18 18 18 18 18 18 19 20 21 22 23 23 23 24 24
15 13 16 16 14 16 15 12 12 11 11 11 11 11 10 9 9 9 8 9 10 9 8 8 10 12 12 10 10 11 11 12 14 15 15 15 16 18 19 20 21 20 19 18 17 17 17 16 15 14 13 13 12 12 11 11 10 10 11 12 14 14 15 17 18 18 18 18 19 19 18 18 18 18 18 18 19 20 21 22 23 23 23 24 24 24
15 13 16 15 13 17 16 12 12 12 11 10 9 10 10 9 9 8 7 7 8 8 8 9 11 12 11 11 11 11 11 12 13 14 16 16 17 18 19 21 22 21 20 19 18 18 17 17 16 16 15 14 13 13 12 12 11 12 13 13 14 15 16 17 18 19 19 19 19 19 19 19 18 18 18 19 20 21 22 23 23 23 23 24 24 24
15 12 13 14 13 16 16 13 13 11 9 10 10 11 9 7 8 8 7 7 8 10 9 9 11 12 12 12 11 11 11 12 13 14 16 17 18 19 20 21 22 22 21 20 19 18 18 18 17 17 16 15 14 14 13 12 12 13 14 14 15 16 17 18 19 20 20 20 20 19 19 19 19 18 19 19 20 21 22 23 23 24 24 24 24 24
15 12 13 16 15 14 14 14 14 12 9 9 11 11 8 7 8 8 8 7 8 10 8 8 11 11 9 9 8 9 11 12 12 14 15 16 17 19 20 21 22 22 21 20 19 19 19 18 18 18 17 16 15 15 14 13 13 14 14 15 15 16 17 18 20 21 21 21 21 20 20 20 19 19 19 20 20 22 22 23 23 24 24 24 24 24
16 13 12 16 16 14 15 15 14 13 12 11 10 10 9 9 9 9 9 8 8 9 8 8 9 10 10 9 8 9 10 11 11 12 14 15 16 17 19 20 21 21 21 20 20 20 19 19 19 19 18 17 16 16 15 14 14 14 15 16 16 17 18 19 20 21 22 22 22 21 21 21 20 20 20 20 21 22 23 23 24 24 24 24 24 24
17 15 12 14 17 16 16 17 16 15 14 13 11 11 11 10 9 8 9 9 8 9 9 7 7 9 9 8 7 9 10 10 11 11 12 14 15 16 17 19 20 20 20 20 20 20 20 20 20 20 19 18 17 16 16 15 15 15 16 16 17 18 18 20 21 22 22 22 22 22 22 21 20 20 20 21 22 22 23 23 24 24 24 24 24 24
17 17 13 13 16 17 17 18 17 15 16 15 14 13 12 11 10 10 10 9 9 9 8 8 8 8 6 6 8 10 10 10 11 11 11 13 14 15 16 17 19 20 20 20 20 20 20 20 21 20 20 19 17 17 17 16 16 16 16 17 18 18 19 20 21 22 23 23 23 23 22 21 21 21 21 21 22 23 23 23 24 24 24 24 25 25
18 18 16 14 15 18 18 17 16 15 15 16 15 14 14 13 11 11 11 9 9 9 8 8 9 9 7 7 8 9 9 10 10 11 11 11 13 14 14 15 17 19 20 20 20 20 20 20 21 21 20 19 18 18 18 17 16 17 17 18 18 19 20 21 21 22 23 24 23 23 22 22 21 21 21 22 22 23 23 23 24 24 25 25 25 25
19 18 19 17 16 16 15 14 14 14 15 15 15 15 15 14 14 13 11 9 9 9 9 9 10 9 7 7 7 8 9 10 10 11 11 11 11 12 13 14 15 17 19 20 20 20 20 20 21 21 21 20 19 18 18 17 17 18 18 19 19 20 21 21 22 22 23 24 24 23 23 22 21 21 22 22 23 23 24 24 24 25 25 26 26 26
19 20 20 19 16 15 14 14 15 16 16 17 17 17 16 15 15 14 11 9 9 9 9 9 10 9 7 7 8 9 10 11 11 12 12 12 11 12 13 14 14 15 17 19 19 20 20 20 21 21 21 20 19 19 18 18 19 19 19 20 20 21 21 22 22 23 24 24 24 23 23 22 22 22 22 22 23 24 24 25 25 26 26 26 27 27
20 21 21 19 18 17 17 16 17 17 18 19 18 19 19 17 15 14 11 11 12 12 11 11 11 8 7 9 11 11 10 11 12 12 12 13 13 12 13 14 14 15 16 18 18 18 19 20 21 21 21 20 20 20 20 20 20 20 20 21 21 21 22 22 23 24 24 25 24 23 23 22 22 22 23 23 24 24 25 26 26 26 26 27 27 28
20 20 22 22 20 19 19 19 19 18 18 19 19 19 20 20 18 16 14 13 14 13 13 13 13 10 8 9 11 11 11 12 13 13 14 14 14 14 14 14 15 15 16 17 18 18 18 19 20 21 21 21 21 21 20 21 21 21 21 22 22 22 22 23 23 24 25 25 24 23 23 23 23 23 23 24 24 25 26 26 27 27 27 27 28 29
19 20 22 23 22 21 19 19 19 19 19 20 21 20 20 21 20 18 16 15 14 12 14 15 15 15 13 12 12 12 13 14 15 16 16 15 15 16 15 16 16 16 16 17 18 18 18 19 21 21 21 21 21 21 21 21 21 21 22 22 22 22 23 23 24 25 25 25 24 24 23 23 23 24 24 24 25 25 26 27 27 27 28 28 29 29
19 20 22 24 24 22 19 17 18 20 21 21 21 21 21 21 21 20 19 17 14 14 15 14 14 17 17 16 16 15 15 16 17 17 18 17 17 17 17 17 17 18 18 18 19 19 20 21 21 21 22 21 21 21 21 21 21 21 22 22 23 23 23 24 25 25 25 25 24 24 24 24 24 24 25 25 25 26 27 27 28 28 28 29 29 29
20 20 21 23 24 22 20 19 19 20 21 21 22 22 22 22 22 22 21 18 16 17 17 13 13 17 18 17 18 18 18 19 19 19 19 19 19 19 19 19 19 20 20 20 20 21 21 21 21 21 21 21 21 21 21 21 21 21 22 23 23 23 24 24 25 25 25 25 25 24 24 24 24 25 25 26 26 26 27 28 28 29 29 29 29 29
20 20 20 21 22 21 20 21 21 21 21 22 22 22 22 22 22 22 21 19 18 19 19 17 17 19 20 20 20 20 20 21 20 20 20 21 21 20 20 20 21 21 21 22 22 22 22 22 22 22 21 21 21 21 21 21 21 21 22 23 23 24 24 25 25 25 25 25 25 25 25 24 24 25 26 26 26 27 27 28 29 29 29 29 29 29
19 19 18 19 20 20 20 20 21 21 21 21 21 21 21 21 21 21 20 19 18 19 19 20 21 21 21 20 19 19 21 21 21 21 22 21 21 21 21 22 22 22 22 22 22 22 22 23 23 22 21 21 21 21 21 21 21 22 22 23 23 24 24 24 25 26 26 25 25 25 25 25 25 26 26 26 27 27 28 29 29 29 29 29 29 29
20 18 17 19 20 19 19 20 20 20 21 21 21 21 21 21 20 20 19 18 19 20 19 20 21 20 19 18 19 21 22 22 23 23 22 21 20 21 22 22 22 22 22 22 22 23 23 23 23 22 22 22 21 21 21 21 21 22 22 23 23 24 24 24 25 26 26 25 25 26 26 25 26 26 26 27 28 28 28 29 29 29 29 29 29 29
20 19 18 19 20 18 18 19 18 19 20 21 21 21 21 21 20 20 19 19 20 20 20 20 20 19 19 20 21 22 22 22 23 22 21 21 20 21 21 21 21 21 22 22 22 23 24 24 23 22 22 22 21 21 21 21 21 22 22 23 23 24 24 24 25 26 26 26 26 26 26 26 26 26 27 28 28 28 29 29 29 29 29 29 29 29
20 21 19 19 19 17 17 17 18 19 21 19 18 19 21 21 21 21 20 20 19 20 20 20 20 20 21 22 22 22 22 22 22 21 21 20 20 19 20 20 20 21 21 22 22 23 24 23 22 22 22 21 21 20 20 21 21 22 22 23 23 24 25 25 26 26 26 26 26 25 26 26 26 27 27 28 28 29 29 29 29 29 29 29 29 29
21 22 20 20 20 18 16 18 20 21 20 17 16 16 18 19 21 21 21 20 20 20 21 22 22 22 22 22 22 22 21 21 21 21 20 19 18 18 18 19 19 20 20 21 21 22 22 22 21 21 21 21 20 20 20 21 22 22 23 23 23 24 25 26 26 26 25 25 25 25 26 26 27 27 28 28 28 28 28 28 28 28 28 28 29 29
21 22 21 20 20 19 19 21 21 18 16 16 16 16 16 17 19 21 21 20 20 21 21 22 22 22 22 22 21 20 20 19 20 20 18 18 18 17 18 18 18 19 19 20 20 21 21 21 21 21 20 20 20 20 20 21 22 23 23 23 24 25 25 26 26 25 25 25 25 26 26 27 27 28 28 28 28 28 28 28 28 29 29 29 29 29
22 22 22 22 21 21 22 23 21 18 17 17 18 18 18 19 19 20 21 20 19 20 20 21 21 21 21 21 19 18 18 18 19 17 16 16 16 16 16 16 16 17 18 18 19 19 19 20 21 20 19 19 19 20 21 22 23 23 23 24 25 25 25 26 25 25 24 25 25 26 27 27 28 28 28 28 28 28 28 28 29 29 29 29 29 29
23 22 23 23 22 22 24 23 22 22 22 21 21 20 20 20 19 19 20 20 20 21 21 20 20 20 19 19 17 16 16 17 17 15 14 14 14 14 14 14 14 15 16 17 17 17 18 20 20 19 19 19 19 20 22 23 23 23 23 24 25 25 25 25 25 24 24 25 25 26 27 27 28 28 28 28 28 28 28 28 29 29 29 29 29 28
25 24 23 24 23 23 24 24 22 23 22 20 19 18 18 18 17 17 20 21 19 19 19 19 19 19 18 18 16 15 16 17 16 14 13 13 13 13 13 13 13 13 14 15 16 16 18 19 19 18 18 19 20 21 22 23 23 23 24 24 24 24 24 25 24 24 24 25 26 27 27 27 28 28 29 29 29 28 28 28 29 30 30 29 29 28
25 24 25 27 26 24 24 25 24 23 20 17 16 17 17 17 16 18 21 19 15 15 17 17 18 18 18 18 16 16 17 17 15 14 14 13 13 13 13 13 12 12 12 13 14 15 16 17 17 17 18 19 21 22 22 23 24 24 25 24 24 24 25 25 24 24 25 26 26 27 27 27 28 28 29 29 29 28 28 29 30 30 30 29 29 28
24 25 25 27 27 26 25 25 24 22 19 16 17 18 18 18 19 21 22 19 16 16 17 17 18 19 19 18 17 18 18 16 15 15 15 14 14 14 13 13 13 12 12 13 14 15 16 16 16 17 19 20 22 22 23 24 24 25 25 25 25 25 25 25 25 26 26 26 26 27 28 28 28 28 29 30 30 29 29 30 30 30 30 30 29 28
22 23 24 25 26 25 25 24 24 23 19 17 18 19 19 20 21 21 20 19 18 18 18 19 20 21 20 20 20 20 18 16 15 16 15 15 15 14 14 13 13 13 13 14 14 14 15 16 17 19 21 22 22 23 23 23 24 25 25 25 26 26 26 26 27 27 27 26 27 28 28 28 29 28 29 30 30 30 30 30 30 31 31 30 29 28
20 21 22 23 23 24 23 23 23 22 19 19 19 19 21 22 21 19 18 19 19 19 20 21 22 22 22 22 21 21 19 17 16 16 16 16 15 15 14 14 13 14 14 14 15 15 16 17 19 21 22 22 22 23 23 23 24 25 25 26 28 27 27 27 28 28 27 27 27 28 28 29 29 29 29 30 30 30 30 30 30 30 30 30 29 28
19 20 21 21 20 21 22 21 20 19 18 19 20 20 20 21 20 20 21 22 22 22 23 24 24 24 23 23 22 21 20 18 17 16 16 16 16 15 14 14 14 15 15 16 17 17 18 19 20 21 22 22 22 23 23 24 25 25 26 28 28 28 28 28 27 27 27 28 28 28 29 29 29 29 29 30 30 30 30 30 30 30 29 29 28 27
19 19 21 20 19 20 20 18 18 18 18 19 20 20 20 22 22 23 24 25 25 26 25 25 25 24 24 23 22 21 20 19 18 17 17 16 16 15 15 15 16 16 16 17 17 18 20 20 21 21 22 23 23 23 24 25 26 27 28 28 28 28 28 27 27 27 28 28 28 28 28 28 28 28 29 29 30 30 30 30 31 30 29 28 27 26
19 19 21 20 20 20 20 19 19 20 20 20 20 21 22 23 23 24 25 26 27 27 26 26 26 25 24 23 22 21 21 20 19 18 17 17 16 16 16 16 17 17 17 17 18 19 20 21 21 22 23 24 24 25 26 26 27 28 29 29 28 28 27 27 27 27 27 27 27 27 27 28 28 28 29 29 30 30 30 30 30 29 28 27 26 25
19 20 21 21 21 22 22 21 21 22 22 21 22 22 23 24 25 25 26 27 27 27 26 26 25 24 23 23 22 21 21 20 19 18 18 18 17 17 17 17 17 17 17 18 18 19 20 21 22 23 24 25 25 26 27 28 29 29 29 29 28 27 27 26 26 26 26 26 26 26 27 28 27 28 29 29 29 30 30 30 29 27 27 27 26 24
20 21 21 21 22 22 22 21 22 24 23 22 22 22 23 24 25 26 26 27 27 27 26 25 25 23 22 22 22 21 20 20 19 19 18 18 17 17 17 17 17 17 17 18 18 19 20 21 22 23 24 25 26 27 27 28 28 28 28 28 27 26 25 25 25 25 25 25 25 26 27 28 28 28 29 29 30 30 30 29 28 27 28 27 25 23
20 21 20 21 22 22 22 22 23 24 24 23 22 23 24 25 26 26 27 26 26 26 25 24 23 22 21 21 20 20 20 19 19 19 18 18 17 17 17 17 17 18 18 18 19 20 20 21 22 23 24 25 26 27 28 28 28 27 27 26 25 25 24 24 24 24 25 25 25 26 27 27 28 28 29 30 30 30 29 29 28 29 29 27 24 22
22 22 21 22 23 22 22 22 22 23 23 23 23 24 25 26 26 26 26 26 25 24 23 22 21 21 20 20 20 19 19 18 19 19 19 18 18 18 18 18 19 19 19 19 20 20 21 22 23 24 25 26 27 27 27 27 27 27 26 25 25 25 24 24 24 25 26 26 26 27 27 27 28 28 29 29 29 28 27 27 28 28 27 24 21 19
23 22 22 23 23 22 21 21 21 23 24 25 25 25 26 25 24 24 24 25 25 24 23 22 21 20 19 19 20 20 19 19 19 20 20 19 19 19 19 20 21 20 20 21 21 22 22 24 25 26 26 26 27 27 27 27 27 27 26 25 25 25 24 24 25 25 26 26 26 26 27 27 28 28 27 27 26 26 26 25 25 25 22 18 16 15
Wind_Direction
194 194 195 195 191 192 196 200 209 213 203 197 197 196 196 200 204 204 205 207 210 219 215 208 205 184 174 171 169 167 166 169 163 156 153 152 156 160 160 160 157 156 152 149 151 154 158 162 168 170 164 157 158 158 177 233 261 271 271 272 272 278 282 284 289 293 295 297 299 300 300 300 300 298 298 299 299 300 299 299 301 301 301 302 301 300
198 203 201 199 197 195 196 201 207 208 202 200 201 202 205 210 209 205 210 215 213 223 219 207 213 197 182 182 181 182 184 185 183 176 171 166 165 165 165 164 162 159 152 149 152 155 160 165 169 173 173 167 157 141 117 73 7 329 307 296 292 292 290 292 298 300 301 301 302 302 302 302 303 302 301 301 301 301 301 301 302 302 302 302 302 301
199 207 205 200 198 192 192 198 202 205 206 205 204 207 211 211 209 207 213 218 215 224 224 209 213 202 193 199 197 200 201 199 201 197 189 181 177 177 176 174 173 170 165 164 168 169 171 175 176 179 182 178 161 137 100 51 21 4 346 330 321 312 306 305 306 305 306 306 306 306 305 304 306 305 303 303 303 304 304 304 304 304 303 303 302 302
200 207 203 197 194 192 194 197 201 206 208 208 208 211 214 208 212 220 218 218 216 223 227 214 214 212 210 217 214 214 216 212 213 213 209 203 195 192 191 191 191 189 187 188 191 188 183 183 185 188 187 180 169 160 103 13 360 354 348 341 334 327 321 319 315 313 313 312 310 309 309 308 308 308 307 308 308 307 307 307 306 306 305 304 303 303
201 199 191 190 194 196 197 196 200 205 206 212 215 218 222 215 222 231 219 214 218 224 227 218 218 223 221 221 219 221 226 223 220 220 221 218 211 207 205 207 209 206 204 204 204 198 192 191 193 196 195 190 189 213 282 325 334 336 338 339 335 331 328 326 324 321 319 317 315 314 314 313 312 312 312 311 311 311 310 308 308 308 307 307 306 305
198 188 185 188 192 196 198 198 202 207 207 213 219 224 234 232 231 230 213 212 224 227 224 218 224 230 224 223 221 221 227 229 228 227 226 224 219 217 216 217 218 219 215 212 212 206 200 199 200 204 208 209 217 251 293 306 315 321 327 331 331 330 328 327 326 324 322 321 319 318 317 317 316 315 315 314 314 314 313 311 310 310 310 309 308 307
196 188 189 189 190 194 200 202 201 206 214 217 217 222 233 235 230 219 210 218 230 230 222 219 228 238 230 228 225 223 228 230 232 232 229 227 225 223 222 221 221 221 218 216 217 212 207 206 208 213 217 224 237 259 290 304 312 318 323 327 328 328 327 326 325 325 324 322 320 319 319 318 317 316 316 316 316 315 315 314 313 312 312 312 311 309
192 187 190 192 193 196 203 207 202 209 221 221 214 218 224 226 222 215 214 223 229 229 224 220 227 239 242 239 229 224 229 232 233 234 232 229 228 227 227 224 222 222 220 218 220 219 214 214 217 222 224 231 243 256 277 296 310 318 323 326 327 327 326 325 325 325 324 322 321 320 319 318 318 317 317 317 316 316 316 315 315 314 314 314 314 313
191 190 191 192 196 199 204 203 196 205 219 219 211 210 212 216 216 215 218 224 228 230 229 223 225 240 246 244 234 228 231 236 236 234 232 230 228 228 228 227 225 224 223 221 222 224 222 222 226 230 230 233 243 256 270 286 303 314 320 324 325 326 326 325 325 324 324 323 322 321 320 319 318 318 318 317 316 317 317 317 317 317 316 316 316 316
195 198 196 195 199 200 196 190 192 204 213 209 199 192 193 205 212 218 223 228 231 233 235 226 224 242 250 239 234 236 238 241 240 237 233 230 228 228 228 229 228 227 227 226 225 226 226 227 232 233 232 235 244 255 266 281 298 310 316 319 322 324 326 325 325 324 323 323 322 322 321 321 320 319 318 318 317 318 318 318 318 318 317 317 317 317
192 199 201 201 203 196 184 187 203 203 196 195 193 187 191 204 214 225 230 231 235 237 238 229 224 240 254 247 237 241 248 248 243 237 234 231 229 229 228 229 229 228 229 229 228 229 229 230 232 234 232 237 245 252 264 280 295 305 312 316 320 323 325 326 325 323 323 323 323 323 322 321 320 319 318 318 318 319 319 318 318 318 317 317 316 316
191 196 199 200 201 192 182 189 202 195 190 196 201 199 202 210 217 224 226 230 240 242 236 234 234 241 251 254 249 249 251 250 246 240 235 232 231 230 229 229 229 229 230 230 231 232 232 232 232 233 234 237 244 249 260 277 290 301 309 314 318 322 324 325 325 324 322 323 323 323 322 321 319 318 318 318 318 319 319 319 319 319 318 317 317 317
194 196 195 197 203 200 191 193 200 200 202 208 210 209 212 214 217 225 227 232 243 243 235 241 246 248 253 256 257 260 256 249 248 246 240 235 233 231 230 230 229 230 230 230 231 233 235 236 234 233 234 237 243 247 257 272 285 297 306 311 316 320 323 325 325 324 323 323 323 323 322 320 318 318 317 317 318 319 319 319 320 320 319 318 317 317
194 198 199 200 207 209 205 204 205 207 212 215 213 212 218 220 223 231 232 237 246 243 239 246 250 256 261 258 255 261 260 252 249 246 243 239 235 234 231 230 230 230 230 231 232 232 235 238 236 234 235 239 243 247 255 269 282 294 302 307 314 319 322 325 326 324 323 322 322 322 321 319 317 317 317 317 318 319 320 320 320 320 319 318 318 317
199 205 204 204 208 208 209 213 211 209 210 214 214 216 225 230 232 237 237 240 247 241 234 243 250 256 261 258 253 260 262 255 251 248 246 243 239 238 233 231 231 231 230 232 232 233 234 237 237 236 237 240 244 248 256 268 279 290 299 304 311 317 321 325 326 325 323 321 321 321 320 318 317 317 317 317 318 319 320 320 320 319 319 318 318 317
208 210 203 206 211 206 209 215 212 210 211 213 218 222 231 237 234 243 255 255 260 260 246 243 251 256 262 263 256 257 258 254 252 250 247 244 241 239 237 233 232 233 232 232 233 233 233 235 238 238 238 241 246 250 257 267 277 287 295 301 307 314 320 324 326 326 324 322 321 320 319 318 316 316 316 316 318 319 320 320 319 318 318 317 317 317
212 210 199 204 211 210 213 211 208 215 216 213 222 226 231 242 237 241 253 253 261 267 257 247 255 258 262 264 254 252 259 258 253 249 247 247 242 239 238 235 233 233 233 233 234 233 233 235 238 239 240 243 247 252 257 266 276 284 292 298 304 311 318 323 325 326 325 323 321 320 318 317 316 315 315 315 317 319 320 320 319 318 317 317 317 317
214 212 204 206 209 212 215 209 208 222 226 223 227 223 221 238 242 244 252 250 252 263 261 251 258 260 257 257 246 244 258 262 257 252 248 247 245 242 240 236 234 233 232 232 234 234 234 236 238 240 241 244 247 252 257 265 274 282 289 296 302 308 315 320 323 325 325 323 321 319 317 316 315 313 313 314 316 318 320 320 319 318 316 316 316 316
216 216 211 211 211 210 213 213 214 221 228 235 234 220 221 235 234 231 246 261 262 269 270 255 257 262 254 249 247 248 261 267 261 254 249 247 246 245 241 237 234 233 231 232 234 235 236 236 237 240 242 244 247 252 258 264 272 280 287 294 300 306 313 317 321 323 323 322 320 318 317 315 314 313 312 313 315 317 319 319 319 318 317 316 315 316
217 220 217 213 212 210 213 217 219 219 222 231 234 225 228 240 240 232 244 265 270 274 277 262 258 264 251 243 256 260 266 270 262 255 252 249 247 246 243 238 235 233 232 232 234 235 236 235 237 240 242 243 247 252 258 264 270 278 285 292 298 304 310 315 318 321 321 320 319 317 316 314 313 312 311 312 314 316 317 318 318 318 317 316 315 315
218 221 222 213 211 214 216 218 222 223 219 222 228 227 226 233 244 248 250 259 267 274 277 268 268 274 258 249 266 268 266 269 264 259 257 255 251 248 244 240 237 234 233 233 234 235 235 235 237 239 242 244 247 251 257 263 270 277 284 290 296 301 307 312 315 318 319 319 317 316 315 313 312 311 311 312 313 314 315 316 317 317 316 316 315 315
217 220 221 215 214 219 220 218 224 229 224 222 227 229 228 230 238 250 251 249 255 266 272 272 274 276 266 261 271 273 271 270 265 263 262 258 255 250 245 241 238 236 235 235 236 236 235 235 237 239 242 244 247 250 256 263 270 276 281 288 294 300 305 309 312 316 317 317 316 315 314 312 311 310 310 311 312 313 314 315 315 315 315 315 315 315
220 221 222 222 221 221 220 219 225 231 230 230 232 233 233 233 236 248 255 246 246 257 266 269 272 272 264 262 275 282 284 281 273 271 269 263 258 254 247 242 238 237 237 236 238 238 237 236 237 240 242 243 247 250 256 263 269 274 279 286 293 298 303 308 310 312 315 315 315 313 312 312 311 310 309 310 311 313 314 314 314 314 313 313 314 314
220 222 223 225 224 221 221 223 225 229 231 233 234 235 237 237 239 248 255 251 250 256 260 263 267 271 266 269 283 290 289 283 274 272 272 269 265 257 251 247 243 240 238 237 239 240 239 237 237 239 241 243 247 250 255 262 268 273 279 285 291 296 301 305 307 310 312 313 313 312 311 310 310 310 309 309 311 311 313 314 314 314 313 313 313 313
219 221 221 223 224 222 224 225 224 226 230 233 235 235 237 239 241 247 251 253 256 257 258 265 271 273 270 276 285 288 284 276 269 269 272 270 268 263 257 253 249 246 242 239 239 239 238 238 238 239 241 244 247 250 255 262 267 272 277 283 290 296 300 303 305 308 310 311 311 310 309 309 309 309 308 309 309 310 312 313 314 314 313 313 314 313
220 222 221 223 225 224 225 227 225 225 228 233 236 234 234 236 238 243 248 250 254 253 252 259 268 275 274 275 280 281 280 277 272 271 271 268 268 269 265 259 253 250 247 242 240 240 240 240 241 240 242 245 247 250 255 261 266 271 277 282 288 294 298 301 303 306 309 310 309 308 308 308 309 308 308 308 309 310 311 312 312 312 313 314 314 313
223 225 223 226 230 230 232 232 228 228 230 231 233 232 233 235 236 241 246 249 250 252 253 255 262 272 275 276 281 281 280 281 278 275 272 267 265 266 266 263 257 253 250 246 245 244 243 243 243 241 242 244 247 250 256 262 266 271 276 281 286 292 296 299 302 305 307 308 308 308 308 308 308 308 309 309 309 309 310 310 311 312 312 313 313 313
225 226 225 227 231 234 237 235 229 231 234 234 234 234 234 234 235 238 243 247 248 254 261 260 258 266 273 279 284 284 283 285 283 279 276 271 265 263 264 262 258 255 252 248 246 245 244 244 243 242 242 245 248 251 257 263 267 271 276 280 285 290 294 298 301 303 305 306 307 307 308 308 308 308 309 309 309 309 310 309 310 311 311 312 312 313
227 228 226 227 231 233 236 236 234 236 238 239 239 237 234 233 234 237 242 246 249 256 265 266 261 265 273 281 285 286 286 286 284 281 279 275 269 265 261 259 256 255 252 249 247 246 245 245 244 243 243 245 248 252 258 264 268 272 276 280 285 289 293 297 299 301 303 305 306 307 307 307 308 308 309 308 309 309 309 309 309 310 311 312 312 312
229 230 228 229 231 232 234 235 236 237 239 241 241 238 234 233 234 237 243 247 250 257 265 268 267 271 277 282 284 285 286 285 284 282 279 274 270 265 260 257 255 253 251 250 248 247 247 246 244 243 244 246 249 253 258 263 268 272 275 280 284 288 293 296 298 300 302 303 304 306 306 306 307 308 308 308 308 309 309 310 310 310 311 312 312 312
228 231 230 229 231 232 233 234 235 236 237 238 237 235 233 233 234 239 245 249 252 259 265 268 271 275 279 280 281 283 284 283 281 279 276 273 270 266 261 257 254 252 251 250 248 247 247 246 245 244 245 247 250 254 258 264 268 271 275 280 284 289 293 295 296 299 301 302 303 305 305 305 306 307 307 307 308 308 309 310 310 310 311 312 312 311
225 230 229 228 231 232 232 232 232 233 235 234 232 231 231 234 238 242 247 250 254 260 265 268 272 276 278 279 281 284 286 283 279 276 275 274 272 268 265 261 256 253 251 250 248 247 246 245 245 245 245 247 250 254 259 264 268 271 275 280 286 290 293 294 295 298 300 301 302 304 304 305 305 306 306 307 307 308 309 310 310 310 311 312 312 311
225 228 227 228 233 231 227 228 229 229 234 236 233 232 234 238 242 246 249 252 256 260 264 268 271 276 281 283 283 285 287 285 281 278 275 274 272 269 267 263 259 256 253 251 247 244 244 245 244 243 244 247 250 254 259 263 267 271 276 281 287 291 292 293 295 298 299 300 301 303 304 304 305 305 305 306 307 308 309 310 310 311 312 312 312 311
227 230 230 229 234 230 222 224 229 232 237 242 240 237 238 241 245 249 252 254 255 258 264 270 274 278 282 283 282 284 287 287 285 279 275 273 271 269 267 265 262 259 256 252 247 243 243 244 243 242 244 247 250 255 259 264 268 272 277 283 288 290 291 293 295 297 297 299 300 302 303 304 305 305 306 306 307 308 309 310 310 312 312 312 312 311
229 231 231 232 235 233 225 226 235 240 242 244 243 241 242 245 249 252 255 255 256 259 264 270 274 277 280 282 282 284 286 287 285 280 274 271 268 268 268 265 264 261 257 254 250 245 243 242 241 242 243 246 250 255 261 266 270 274 279 283 287 289 290 293 294 295 296 298 299 301 303 304 305 306 306 307 307 307 308 310 310 311 312 312 312 311
231 232 233 233 234 233 231 233 239 245 245 240 240 242 246 249 250 252 257 257 258 261 265 270 275 277 280 281 282 283 284 284 283 279 273 271 269 268 267 266 263 261 258 256 252 247 242 239 239 240 243 247 252 256 262 267 271 275 279 284 286 288 290 292 293 294 296 297 299 301 303 304 306 307 307 307 307 307 308 309 310 310 310 311 311 311
234 234 235 235 235 236 238 239 242 246 245 242 243 245 247 250 250 254 260 261 259 262 268 273 276 277 278 280 281 282 282 282 282 277 272 271 271 268 266 265 264 262 260 257 252 246 240 237 238 240 243 248 253 258 264 269 272 275 280 284 286 288 289 291 292 294 295 297 299 301 303 304 306 307 307 307 307 307 308 308 309 309 310 311 311 311
233 236 236 236 237 239 242 243 244 247 249 250 249 247 247 250 252 255 262 264 262 263 268 272 274 274 276 277 279 279 279 280 280 275 270 271 272 268 265 264 265 264 261 256 249 244 240 238 238 240 243 248 255 262 268 271 272 276 281 284 286 287 288 290 292 294 296 297 299 301 302 304 305 306 307 307 307 307 308 308 308 309 310 311 311 310
233 235 237 238 238 239 242 244 245 249 253 252 246 242 244 249 251 256 263 265 264 262 264 268 270 272 275 276 277 276 276 278 279 274 270 271 272 269 265 265 266 265 261 256 250 244 241 240 240 242 246 252 260 266 270 272 273 277 281 283 285 287 288 289 291 294 296 297 299 301 302 303 304 305 306 306 306 307 307 307 308 309 309 309 309 309
233 234 235 238 239 239 242 246 248 251 253 249 242 240 243 247 253 259 262 265 265 263 264 267 270 274 275 274 275 274 273 276 277 273 269 271 272 269 265 264 266 265 260 256 252 248 246 245 245 247 252 259 264 268 272 274 275 278 281 283 285 287 288 289 291 294 295 296 299 300 301 302 303 304 305 306 307 307 307 307 307 307 307 306 306 305
232 234 236 239 240 240 241 246 248 249 248 246 243 242 242 247 255 260 262 266 268 266 267 269 273 277 275 271 271 273 273 273 273 269 267 269 270 268 265 264 265 264 260 256 254 252 251 250 251 254 260 265 268 271 274 276 276 278 281 283 284 286 287 289 291 293 294 296 298 299 300 301 302 302 304 305 306 306 306 307 307 307 306 305 304 303
232 234 235 238 240 240 241 244 247 247 247 248 247 245 246 252 258 262 266 269 267 266 268 271 275 278 275 268 268 271 271 269 268 266 266 267 267 264 263 263 263 262 261 259 258 257 255 255 257 261 265 268 270 273 277 278 278 279 282 283 283 284 287 289 290 292 294 295 296 298 299 301 302 302 303 304 305 305 305 306 307 307 306 305 304 302
233 234 235 237 239 240 241 243 245 247 247 248 248 249 250 254 259 263 266 267 266 269 273 275 276 277 273 268 266 267 266 265 265 265 264 264 263 261 260 260 260 260 261 261 259 258 258 261 264 266 268 270 273 276 278 280 282 282 283 284 284 284 287 289 290 291 293 295 296 297 298 301 302 302 302 304 304 305 305 305 306 306 305 304 303 302
235 237 238 237 238 240 242 243 244 245 248 250 250 252 254 258 262 264 266 268 271 274 276 277 276 274 272 269 266 262 262 263 263 262 261 262 261 259 258 259 260 261 263 264 263 261 262 266 269 270 272 275 278 278 279 283 285 285 284 285 285 285 287 289 289 291 293 294 294 295 297 300 301 301 302 303 303 304 304 304 304 304 304 304 303 302
239 241 242 241 240 241 244 244 243 244 249 251 252 255 260 264 267 269 269 271 273 274 274 275 274 272 270 267 264 260 259 260 260 258 258 258 258 257 257 258 261 263 265 267 267 266 266 270 273 275 276 279 281 281 282 284 286 286 285 286 285 285 286 288 289 290 291 292 293 295 297 299 300 301 301 302 303 304 304 304 303 302 302 302 302 301
241 242 244 243 243 243 244 245 246 249 252 254 256 260 265 268 271 273 273 273 273 273 273 272 272 271 268 265 261 258 256 257 257 257 257 257 256 257 257 258 261 264 266 268 270 271 272 274 276 278 279 281 282 283 284 285 287 287 287 286 285 285 286 287 288 289 289 291 293 295 296 298 299 300 302 303 304 304 304 303 302 300 299 299 300 299
241 245 246 244 244 247 247 248 251 255 257 258 260 264 268 271 274 275 275 274 274 274 272 271 270 270 267 263 258 255 253 253 254 256 256 257 257 258 258 260 263 266 268 270 272 274 276 277 279 280 282 283 284 285 286 287 288 289 289 287 286 286 286 287 288 288 288 290 292 294 295 296 298 300 302 303 304 305 304 302 301 300 297 296 296 295
243 247 248 245 246 250 250 251 258 259 255 255 261 266 271 276 278 278 277 275 274 273 272 271 269 267 264 260 255 252 252 252 252 254 255 257 257 259 261 263 265 268 271 273 275 276 278 279 281 283 286 287 288 288 288 289 290 291 290 289 287 287 287 287 287 288 290 291 292 293 295 296 297 299 301 302 303 304 303 302 300 299 297 295 293 291
245 247 248 248 249 251 250 254 261 259 251 253 264 271 275 278 280 279 278 276 274 272 271 269 267 265 262 258 253 252 253 253 252 252 253 254 256 258 262 265 268 271 273 275 276 278 280 282 284 287 288 289 289 290 290 290 291 292 291 289 288 287 287 287 288 290 291 291 291 292 293 295 296 298 300 302 303 303 303 302 301 299 296 292 288 285
247 248 249 250 250 251 252 256 259 257 254 258 267 273 276 278 279 279 278 276 274 272 270 267 264 262 260 258 255 253 253 253 252 252 252 253 256 260 263 267 270 272 273 275 278 281 283 285 287 288 288 289 290 290 290 290 291 291 290 289 287 287 287 288 290 291 291 289 289 290 291 294 297 298 300 302 303 303 303 305 305 303 297 289 283 280
249 250 252 252 251 252 255 258 259 258 260 263 268 272 274 275 277 277 277 275 273 271 269 265 260 258 258 257 256 254 252 251 252 253 254 256 259 263 267 270 272 272 273 275 279 282 284 285 287 288 289 289 289 289 289 289 289 289 289 288 287 287 287 289 290 290 289 288 289 290 291 294 297 298 300 302 303 303 304 306 308 307 300 288 279 277